Home   Weather   Inverness   Past weeks

Flag for USA Past Weather in Inverness, Florida, USA — Yesterday and Last 2 Weeks

Now
59 °F

Refreshingly cool.


Feels Like: 57 °F
Forecast: 47 / 61 °F
Wind: 10 mph from Southeast

Location: The Villages

Current Time: Dec 9, 2016 at 4:30:26 pm

Latest Report: Dec 9, 2016 at 3:55 pm


Visibility: 10 mi

Pressure: 30.20 "Hg

Humidity: 48%

Dew Point: 39 °F

Location of InvernessLocation

Past Weather in Inverness — Graph

°F

Inverness Temperature Yesterday

Maximum temperature yesterday: 72 °F (at 3:55 pm)
Minimum temperature yesterday: 54 °F (at 1:15 am)
Average temperature yesterday: 61 °F

High & Low Weather Summary for the Past Weeks

 TemperatureHumidityPressure
High86 °F (Dec 5, 1:35 pm)100% (Nov 24, 8:55 pm)30.28 "Hg (Nov 24, 8:55 pm)
Low48 °F (Dec 9, 5:15 am)40% (Dec 2, 3:35 pm)29.74 "Hg (Dec 6, 12:35 pm)
Average67 °F86%29.98 "Hg
* Reported Nov 24 2:15 pm — Dec 9 2:55 pm, Inverness, Weather by CustomWeather, © 2016

Note: Actual official high and low records may vary slightly from our data, if they occured in-between our weather recording intervals... More about our weather records

Advertising

Inverness Weather History for the Previous 24 Hours

Scroll right to see more
 ConditionsComfort  
Time TempWeatherWind HumidityBarometerVisibility
2:55 pm
Fri, Dec 9
61 °FRefreshingly cool.N/A55%30.19 "Hg10 mi
2:35 pm61 °FRefreshingly cool.9 mph55%30.19 "Hg10 mi
2:15 pm59 °FRefreshingly cool.N/A59%30.20 "Hg10 mi
1:55 pm59 °FRefreshingly cool.N/A59%30.20 "Hg10 mi
1:35 pm59 °FRefreshingly cool.N/A59%30.20 "Hg10 mi
1:15 pm57 °FCool.7 mph63%30.20 "Hg10 mi
12:55 pm57 °FCool.8 mph67%30.20 "Hg10 mi
12:35 pm55 °FCool.N/A67%30.22 "Hg10 mi
12:15 pm54 °FCool.9 mph67%30.23 "Hg10 mi
11:55 am54 °FCool.8 mph72%30.25 "Hg10 mi
11:35 am52 °FCool.N/A72%30.26 "Hg10 mi
11:15 am50 °FCool.8 mph71%30.27 "Hg10 mi
10:55 am48 °FCool.N/A76%30.27 "Hg10 mi
10:35 am48 °FCool.7 mph71%30.28 "Hg10 mi
10:15 am48 °FCool.12 mph71%30.27 "Hg10 mi
9:55 am48 °FCool.N/A71%30.28 "Hg10 mi
9:15 am48 °FCool.9 mph71%30.25 "Hg10 mi
8:55 am48 °FCool.10 mph76%30.25 "Hg10 mi
8:35 am48 °FCool.N/A76%30.25 "Hg10 mi
8:15 am48 °FCool.N/A76%30.24 "Hg10 mi
7:55 am48 °FCool.N/A82%30.23 "Hg10 mi
7:15 am48 °FCool.6 mph82%30.21 "Hg10 mi
6:55 am48 °FCool.9 mph82%30.21 "Hg10 mi
6:35 am48 °FCool.N/A87%30.20 "Hg10 mi
6:15 am48 °FCool.N/A94%30.20 "Hg10 mi
5:55 am48 °FCool.N/A94%30.20 "Hg10 mi
5:35 am48 °FCool.N/A94%30.18 "Hg10 mi
5:15 am48 °FCool.N/A94%30.17 "Hg10 mi
4:55 am50 °FCool.N/A94%30.15 "Hg10 mi
4:35 am50 °FCool.N/A100%30.14 "Hg10 mi
4:15 am50 °FCool.N/A100%30.14 "Hg10 mi
3:55 am52 °FCool.N/A100%30.16 "Hg10 mi
3:35 am52 °FCool.N/A100%30.16 "Hg10 mi
3:15 am52 °FCool.No wind100%30.17 "Hg10 mi
2:55 am52 °FCool.N/A100%30.18 "Hg10 mi
2:35 am52 °FCool.N/A100%30.14 "Hg10 mi
2:15 am54 °FCool.N/A100%30.15 "Hg10 mi
1:55 am54 °FCool.N/A100%30.14 "Hg10 mi
1:35 am54 °FCool.N/A100%30.16 "Hg10 mi
1:15 am55 °FCool.N/A100%30.15 "Hg10 mi
12:55 am57 °FCool.N/A88%30.14 "Hg10 mi
12:35 am57 °FCool.N/A88%30.13 "Hg10 mi
12:15 am59 °FCool.9 mph82%30.15 "Hg10 mi
11:35 pm
Thu, Dec 8
61 °FCool.7 mph77%30.14 "Hg10 mi
11:15 pm61 °FCool.No wind83%30.15 "Hg10 mi
10:55 pm61 °FCool.7 mph83%30.14 "Hg10 mi
10:35 pm61 °FCool.6 mph88%30.14 "Hg10 mi
10:15 pm61 °FCool.N/A88%30.13 "Hg10 mi
9:55 pm61 °FCool.N/A94%30.12 "Hg10 mi
9:35 pm61 °FCool.N/A94%30.12 "Hg10 mi
9:15 pm61 °FCool.N/A94%30.10 "Hg10 mi
8:55 pm61 °FCool.7 mph94%30.10 "Hg10 mi
8:35 pm63 °FMild.7 mph88%30.10 "Hg10 mi
8:15 pm63 °FMild.N/A88%30.11 "Hg10 mi
7:55 pm63 °FMild.9 mph94%30.11 "Hg10 mi
7:35 pm64 °FMild.N/A83%30.09 "Hg10 mi
7:15 pm64 °FMild.No wind83%30.08 "Hg10 mi
6:55 pm64 °FMild.No wind88%30.08 "Hg10 mi
6:35 pm64 °FMild.No wind88%30.08 "Hg10 mi
6:15 pm64 °FMild.No wind88%30.06 "Hg10 mi
5:55 pm64 °FMild.No wind88%30.06 "Hg10 mi
5:35 pm66 °FMild.No wind83%30.05 "Hg10 mi
5:15 pm68 °FMild.No wind78%30.04 "Hg10 mi
4:55 pm68 °FMild.No wind78%30.03 "Hg10 mi
4:35 pm70 °FMild.No wind73%30.03 "Hg10 mi
4:15 pm70 °FMild.No wind73%30.03 "Hg10 mi
Weather by CustomWeather, © 2016

See weather overviewHow to use our weather pages